CAPE
0 0 0 0 0 0 0 0 0 0 0 0 0 0 0 0 0 0 0 0 0 0 0 0 0 1 1 2 1 2 0 0 0 0 0 0 2 1 1 0 0 0 0 0
0 0 0 0 0 0 0 0 0 0 0 0 0 0 0 0 0 0 0 0 0 0 0 0 0 1 2 1 2 0 0 0 0 0 0 3 4 1 1 2 0 0 0 0
0 0 0 0 0 0 0 0 0 0 0 0 0 0 0 0 0 0 0 0 0 0 0 0 1 2 2 2 2 0 0 0 0 0 3 25 2 1 2 2 2 1 0 0
0 0 0 0 0 0 0 0 0 0 0 0 0 0 0 0 0 0 0 0 0 0 0 0 1 2 2 3 0 0 0 0 0 0 9 11 1 1 1 1 2 2 1 0
0 0 0 0 0 0 0 0 0 0 0 0 0 0 0 0 0 0 0 0 0 0 0 0 1 3 2 0 0 0 2 0 0 15 6 1 2 2 2 2 3 2 1 0
0 0 0 0 0 0 0 0 0 0 0 0 0 0 0 0 0 0 0 0 0 0 0 1 3 1 0 0 0 2 0 0 13 17 1 2 1 1 2 2 2 2 3 1
0 0 0 0 0 0 0 0 0 0 0 0 0 0 0 0 0 0 0 0 0 0 1 4 0 0 0 0 7 0 37 6 4 1 1 1 0 1 2 2 2 2 3 2
0 0 0 0 0 0 0 0 0 0 0 0 0 0 0 0 0 0 0 0 0 0 0 0 1 0 3 46 44 25 4 1 2 0 1 1 3 3 2 1 2 3 2 2
0 0 0 0 0 0 0 0 0 0 0 0 0 0 0 0 0 0 0 0 0 0 0 1 5 8 0 0 1 1 1 0 0 0 0 1 1 2 0 0 2 2 2 2
0 0 0 0 0 0 0 0 0 0 0 0 0 0 0 0 0 0 0 0 0 0 1 3 5 5 3 1 0 0 0 1 1 0 0 1 2 3 0 1 1 2 1 1
0 0 0 0 0 0 0 0 0 0 0 0 0 0 0 0 0 0 0 0 0 0 1 2 3 2 2 2 2 0 0 1 1 1 0 0 1 1 0 1 0 0 0 0
0 0 0 0 0 0 0 0 0 0 0 0 0 0 0 0 0 0 0 0 0 0 0 1 2 3 5 3 3 0 0 1 0 0 1 2 2 1 0 0 1 1 0 0
0 0 0 0 0 0 0 0 0 0 0 0 0 0 0 0 0 0 0 0 0 0 0 1 2 4 5 3 3 3 1 1 2 1 1 1 1 0 0 0 0 1 1 1
0 0 0 0 0 0 0 0 0 0 0 0 0 0 0 0 0 0 0 0 0 0 1 1 1 3 5 3 2 2 3 2 1 1 1 1 1 1 0 0 0 0 0 0
0 0 0 0 0 0 0 0 0 0 0 0 0 0 0 0 0 0 0 0 0 0 0 1 1 0 2 3 1 2 1 1 1 1 2 3 2 2 1 1 1 1 2 3
0 0 0 0 0 0 0 0 0 0 0 0 0 0 0 0 0 0 0 0 0 0 0 0 1 1 1 2 2 2 3 3 2 2 2 2 2 3 3 3 3 4 4 4
0 0 0 0 0 0 0 0 0 0 0 0 0 0 0 0 0 0 0 0 0 0 0 0 0 0 1 1 1 2 1 2 3 1 2 3 5 2 3 3 3 4 3 1
0 0 0 0 0 0 0 0 0 0 0 0 0 0 0 0 0 0 0 0 0 0 0 0 0 0 1 1 0 1 1 1 1 2 2 2 3 3 4 4 4 3 2 4
0 0 0 0 0 0 0 0 0 0 0 0 0 0 0 0 0 0 0 0 0 0 0 0 1 1 1 1 1 0 1 1 1 1 2 2 1 2 2 2 2 3 2 0
0 0 0 0 0 0 0 0 0 0 0 0 0 0 0 0 0 0 0 0 0 0 0 0 0 1 2 1 1 0 0 0 1 2 2 1 2 2 4 3 2 1 1 1
0 0 0 0 0 0 0 0 0 0 0 0 0 0 0 0 0 0 0 0 0 0 0 0 0 0 1 0 0 0 0 0 0 0 2 2 2 2 2 1 1 2 2 2
0 0 0 0 0 0 0 0 0 0 0 0 0 0 0 0 0 0 0 0 0 2 0 0 0 3 1 0 0 0 0 0 0 0 0 2 2 1 2 2 2 1 1 1
0 0 0 0 0 0 0 0 0 0 0 0 0 0 0 0 0 0 0 0 0 0 0 0 4 2 1 0 0 0 0 0 0 0 0 0 1 1 1 1 1 1 0 1
0 0 0 0 0 0 0 0 0 0 0 0 0 0 0 0 0 0 0 0 0 0 0 2 1 1 0 0 0 0 0 0 0 0 0 0 1 0 0 0 0 0 1 0
0 0 0 0 0 0 0 0 0 0 0 0 0 0 0 0 0 0 0 0 0 0 0 0 1 1 0 0 0 0 0 0 0 0 0 0 0 0 1 0 0 0 0 0
0 0 0 0 0 0 0 0 0 0 0 0 0 0 0 0 0 0 0 0 0 0 0 0 0 0 0 0 0 0 0 0 0 0 0 0 0 0 0 0 0 0 0 0
0 0 0 0 0 0 0 0 0 0 0 0 0 0 0 0 0 0 0 0 0 0 0 0 0 0 0 0 0 0 0 0 0 0 0 0 0 0 0 0 0 0 0 0
CIN
-0 -0 -0 -0 -0 -0 -0 -0 -0 -0 -0 -0 -0 -0 -0 -0 -0 -0 -0 -0 -0 -0 -0 -0 -0 -0 -0 -0 -5 -0 -0 -0 -0 -0 -0 -0 -0 -0 -0 -0 -0 -0 -0 -0
-0 -0 -0 -0 -0 -0 -0 -0 -0 -0 -0 -0 -0 -0 -0 -0 -0 -0 -0 -0 -0 -0 -0 -0 -0 -0 -0 -0 -0 -0 -0 -0 -0 -0 -0 -0 -9 -0 -0 -0 -0 -0 -0 -0
-0 -0 -0 -0 -0 -0 -0 -0 -0 -0 -0 -0 -0 -0 -0 -0 -0 -0 -0 -0 -0 -0 -0 -0 -0 -0 -0 -0 -0 -0 -0 -0 -0 -0 -0 -6 -36 -0 -0 -0 -0 -0 -0 -0
-0 -0 -0 -0 -0 -0 -0 -0 -0 -0 -0 -0 -0 -0 -0 -0 -0 -0 -0 -0 -0 -0 -0 -0 -0 -0 -0 -0 -0 -0 -0 -0 -0 -0 -3 -32 -0 -0 -0 -0 -0 -0 -0 -0
-0 -0 -0 -0 -0 -0 -0 -0 -0 -0 -0 -0 -0 -0 -0 -0 -0 -0 -0 -0 -0 -0 -0 -0 -0 -0 -0 -0 -0 -0 -0 -0 -0 -28 -23 -10 -0 -0 -0 -0 -0 -0 -0 -0
-0 -0 -0 -0 -0 -0 -0 -0 -0 -0 -0 -0 -0 -0 -0 -0 -0 -0 -0 -0 -0 -0 -0 -0 -0 -0 -0 -0 -0 -0 -0 -0 -11 -17 -0 -0 -0 -0 -0 -0 -0 -0 -0 -0
-0 -0 -0 -0 -0 -0 -0 -0 -0 -0 -0 -0 -0 -0 -0 -0 -0 -0 -0 -0 -0 -0 -0 -0 -0 -0 -6 -2 -0 -0 -0 -33 -35 -2 -0 -0 -0 -0 -0 -0 -0 -0 -0 -0
-0 -0 -0 -0 -0 -0 -0 -0 -0 -0 -0 -0 -0 -0 -0 -0 -0 -0 -0 -0 -0 -0 -0 -0 -0 -0 -0 -0 -1 -0 -0 -0 -0 -0 -0 -0 -0 -0 -0 -0 -0 -0 -0 -0
-0 -0 -0 -0 -0 -0 -0 -0 -0 -0 -0 -0 -0 -0 -0 -0 -0 -0 -0 -0 -0 -0 -0 -0 -0 -0 -0 -0 -0 -0 -0 -0 -0 -0 -0 -0 -0 -0 -0 -0 -0 -0 -0 -0
-0 -0 -0 -0 -0 -0 -0 -0 -0 -0 -0 -0 -0 -0 -0 -0 -0 -0 -0 -0 -0 -0 -0 -0 -0 -0 -0 -0 -0 -0 -0 -0 -0 -0 -0 -0 -0 -0 -0 -0 -0 -0 -0 -0
-0 -0 -0 -0 -0 -0 -0 -0 -0 -0 -0 -0 -0 -0 -0 -0 -0 -0 -0 -0 -0 -0 -0 -0 -0 -0 -0 -0 -0 -0 -0 -0 -0 -0 -0 -0 -0 -0 -0 -0 -0 -0 -0 -0
-0 -0 -0 -0 -0 -0 -0 -0 -0 -0 -0 -0 -0 -0 -0 -0 -0 -0 -0 -0 -0 -0 -0 -0 -0 -0 -0 -0 -0 -0 -0 -0 -0 -0 -0 -0 -0 -0 -0 -0 -0 -0 -0 -0
-0 -0 -0 -0 -0 -0 -0 -0 -0 -0 -0 -0 -0 -0 -0 -0 -0 -0 -0 -0 -0 -0 -0 -0 -0 -0 -0 -0 -0 -0 -0 -0 -0 -0 -0 -0 -0 -0 -0 -0 -0 -0 -0 -0
-0 -0 -0 -0 -0 -0 -0 -0 -0 -0 -0 -0 -0 -0 -0 -0 -0 -0 -0 -0 -0 -0 -0 -0 -0 -0 -0 -0 -0 -0 -0 -0 -0 -0 -0 -0 -0 -0 -0 -0 -0 -0 -0 -0
-0 -0 -0 -0 -0 -0 -0 -0 -0 -0 -0 -0 -0 -0 -0 -0 -0 -0 -0 -0 -0 -0 -0 -0 -0 -0 -0 -0 -0 -0 -0 -0 -0 -0 -0 -0 -0 -0 -0 -0 -0 -0 -0 -0
-0 -0 -0 -0 -0 -0 -0 -0 -0 -0 -0 -0 -0 -0 -0 -0 -0 -0 -0 -0 -0 -0 -0 -0 -0 -0 -0 -0 -0 -0 -0 -0 -0 -0 -0 -0 -0 -0 -0 -0 -0 -0 -0 -0
-0 -0 -0 -0 -0 -0 -0 -0 -0 -0 -0 -0 -0 -0 -0 -0 -0 -0 -0 -0 -0 -0 -0 -0 -0 -0 -0 -0 -0 -0 -0 -0 -0 -0 -0 -0 -0 -0 -0 -0 -0 -0 -0 -0
-0 -0 -0 -0 -0 -0 -0 -0 -0 -0 -0 -0 -0 -0 -0 -0 -0 -0 -0 -0 -0 -0 -0 -0 -0 -0 -0 -0 -0 -0 -0 -0 -0 -0 -0 -0 -0 -0 -0 -0 -0 -0 -0 -0
-0 -0 -0 -0 -0 -0 -0 -0 -0 -0 -0 -0 -0 -0 -0 -0 -0 -0 -0 -0 -0 -0 -0 -0 -0 -0 -0 -0 -0 -0 -0 -0 -0 -0 -0 -0 -0 -0 -0 -0 -0 -0 -0 -0
-0 -0 -0 -0 -0 -0 -0 -0 -0 -0 -0 -0 -0 -0 -0 -0 -0 -0 -0 -0 -0 -0 -0 -0 -0 -0 -0 -0 -0 -0 -0 -0 -0 -0 -0 -0 -0 -0 -0 -0 -0 -0 -0 -0
-0 -0 -0 -0 -0 -0 -0 -0 -0 -0 -0 -0 -0 -0 -0 -0 -0 -0 -0 -0 -0 -0 -0 -0 -0 -0 -0 -0 -0 -0 -0 -0 -0 -0 -0 -0 -0 -0 -0 -0 -0 -0 -0 -0
-0 -0 -0 -0 -0 -0 -0 -0 -0 -0 -0 -0 -0 -0 -0 -0 -0 -0 -0 -0 -0 -0 -0 -0 -0 -0 -0 -0 -0 -0 -0 -0 -0 -0 -0 -0 -0 -0 -0 -0 -0 -0 -0 -0
-0 -0 -0 -0 -0 -0 -0 -0 -0 -0 -0 -0 -0 -0 -0 -0 -0 -0 -0 -0 -0 -0 -0 -0 -0 -0 -0 -0 -0 -0 -0 -0 -0 -0 -0 -0 -0 -0 -0 -0 -0 -0 -0 -0
-0 -0 -0 -0 -0 -0 -0 -0 -0 -0 -0 -0 -0 -0 -0 -0 -0 -0 -0 -0 -0 -0 -0 -0 -0 -0 -0 -0 -0 -0 -0 -0 -0 -0 -0 -0 -0 -0 -0 -0 -0 -0 -0 -0
-0 -0 -0 -0 -0 -0 -0 -0 -0 -0 -0 -0 -0 -0 -0 -0 -0 -0 -0 -0 -0 -0 -0 -0 -0 -0 -0 -0 -0 -0 -0 -0 -0 -0 -0 -0 -0 -0 -0 -0 -0 -0 -0 -0
-0 -0 -0 -0 -0 -0 -0 -0 -0 -0 -0 -0 -0 -0 -0 -0 -0 -0 -0 -0 -0 -0 -0 -0 -0 -0 -0 -0 -0 -0 -0 -0 -0 -0 -0 -0 -0 -0 -0 -0 -0 -0 -0 -0
-0 -0 -0 -0 -0 -0 -0 -0 -0 -0 -0 -0 -0 -0 -0 -0 -0 -0 -0 -0 -0 -0 -0 -0 -0 -0 -0 -0 -0 -0 -0 -0 -0 -0 -0 -0 -0 -0 -0 -0 -0 -0 -0 -0
Wind_Speed
35 32 33 30 31 26 23 19 28 28 26 31 37 41 42 42 41 41 36 33 27 22 35 34 32 32 36 43 50 55 57 59 58 51 48 44 40 29 35 36 38 39 42 38
43 37 36 35 30 28 25 24 24 21 24 28 38 41 42 42 44 40 38 35 29 23 30 32 30 31 34 39 48 53 59 59 55 49 52 47 33 29 34 36 36 40 39 39
47 44 39 42 32 34 30 27 22 23 25 36 38 39 41 41 42 40 38 35 29 22 31 29 28 29 33 37 46 55 56 55 48 44 46 42 34 28 26 32 33 38 37 38
44 48 51 34 28 34 34 28 19 23 30 35 36 34 35 38 43 39 37 35 27 24 25 25 25 27 31 38 46 52 52 49 44 42 41 39 27 28 28 26 31 31 35 34
45 48 36 34 34 43 42 31 21 29 30 34 34 32 36 40 39 37 36 29 27 22 18 18 19 24 33 43 46 49 50 47 44 43 40 36 34 27 25 22 30 27 31 34
40 47 48 36 36 39 31 29 25 26 29 37 37 40 40 47 43 39 36 30 24 19 10 10 13 24 37 48 48 47 45 43 41 40 41 34 29 27 20 17 18 27 28 30
38 41 35 29 38 38 45 34 25 22 25 29 28 29 35 38 39 33 33 29 20 13 9 4 12 28 40 45 49 42 34 38 37 34 33 29 23 22 18 11 13 24 26 29
37 41 46 31 35 43 33 29 19 19 22 24 26 29 32 35 36 34 35 30 20 9 6 1 11 28 39 37 31 27 30 31 31 29 27 25 19 18 19 15 9 20 23 22
29 31 27 31 32 29 31 31 22 17 19 21 25 28 30 33 34 30 29 24 15 10 10 5 15 22 26 23 22 21 24 25 25 21 22 23 23 18 12 14 17 19 21 25
31 29 27 28 28 30 32 30 23 14 16 20 23 26 27 29 31 31 26 20 15 12 10 6 10 13 13 15 16 17 18 19 18 17 17 19 17 13 5 15 19 16 13 14
26 25 29 26 29 32 32 30 28 17 26 21 22 26 23 25 28 28 27 22 17 15 11 6 3 7 8 12 15 15 14 14 12 13 13 15 18 13 13 12 12 10 10 10
30 26 26 26 29 30 32 31 29 18 32 33 34 24 21 23 22 26 22 20 18 15 10 2 1 4 4 3 8 10 8 6 7 9 12 16 14 4 8 8 8 14 8 10
24 25 23 24 26 27 30 30 27 23 29 34 31 26 26 24 19 21 25 22 19 13 8 5 5 6 2 2 4 6 5 6 5 8 12 12 9 5 12 8 6 8 5 9
19 23 25 25 28 28 28 28 26 23 25 33 35 30 28 34 24 18 19 19 13 10 12 9 7 5 6 5 3 4 4 2 1 4 5 7 9 5 5 6 7 10 7 6
19 18 19 23 25 27 28 30 31 31 23 33 34 34 33 33 30 25 16 16 15 12 11 10 8 8 7 5 6 4 3 2 2 1 3 4 5 4 3 3 4 3 3 3
24 23 22 24 25 27 29 31 31 30 29 34 32 34 32 29 31 27 23 18 18 16 18 14 10 10 11 9 6 7 5 4 4 5 5 5 4 4 3 2 3 5 4 5
25 26 26 26 26 28 28 28 28 27 26 33 33 32 32 30 28 29 28 23 17 13 12 10 10 11 11 10 8 7 6 5 4 6 7 6 5 5 3 3 5 3 4 4
20 22 23 23 25 27 27 27 28 28 28 24 33 32 31 30 28 27 27 25 21 16 16 15 13 11 10 9 8 7 5 4 3 6 7 5 4 3 4 3 3 4 3 3
20 21 22 23 22 23 23 24 26 26 26 29 35 31 31 29 28 27 26 25 24 21 21 19 18 14 12 10 8 7 7 5 4 4 4 3 2 4 4 5 4 4 5 5
23 22 23 23 22 22 23 23 24 25 25 28 33 32 30 30 29 27 26 23 24 23 23 21 19 16 15 13 12 9 8 7 6 5 4 4 5 5 4 5 5 5 4 3
22 23 24 24 23 22 22 23 23 24 25 26 29 32 30 29 28 27 25 24 24 24 22 21 20 19 17 15 13 11 10 9 8 9 10 8 7 7 7 7 8 9 8 6
23 24 25 24 23 24 24 23 23 23 24 25 26 31 30 29 27 26 24 23 24 23 21 20 19 18 16 15 14 12 12 11 11 9 8 6 6 5 5 5 5 5 5 5
24 25 25 24 24 25 24 24 23 22 23 23 25 30 29 28 27 25 25 24 23 22 21 19 18 16 14 13 13 12 12 11 10 9 8 7 7 5 4 4 4 4 4 4
25 25 25 24 24 25 26 23 22 21 20 20 24 27 28 27 26 23 24 24 23 21 20 19 18 16 14 13 12 11 11 10 9 8 7 6 5 5 5 3 3 4 3 2
26 26 25 26 27 26 24 21 21 20 19 21 26 26 26 25 25 25 24 23 21 20 19 18 17 16 14 13 12 11 10 10 8 8 7 6 5 5 4 3 3 3 4 3
26 27 27 26 25 22 21 20 19 19 19 21 24 25 25 24 24 23 22 21 20 19 18 17 16 15 14 13 11 11 10 9 8 7 6 6 5 5 4 3 3 3 3 2
26 27 27 27 23 21 19 18 17 17 17 19 24 25 24 24 23 22 21 20 19 18 17 16 15 15 14 12 11 9 9 8 7 7 7 6 6 5 4 4 4 4 3 2
Wind_Direction
1 357 1 5 3 15 20 8 357 330 322 333 346 332 340 342 340 347 346 336 324 312 293 285 266 249 237 227 221 215 210 207 208 209 213 221 227 208 203 201 200 201 206 208
7 17 16 11 28 22 10 357 343 341 325 358 343 347 347 347 351 349 336 340 336 316 289 282 262 246 233 226 212 206 202 204 206 207 209 212 214 203 201 201 200 204 208 209
12 10 18 21 21 14 2 356 353 359 346 341 345 347 346 346 353 344 334 336 328 320 290 277 258 241 228 217 203 197 198 201 201 205 209 203 206 202 199 205 202 209 211 212
9 12 16 22 22 10 0 357 13 11 346 352 347 339 344 2 355 344 336 342 354 313 290 276 250 232 217 203 192 192 196 193 195 202 198 196 191 197 203 209 211 209 214 213
11 10 12 23 19 9 6 7 28 0 340 349 339 340 7 5 354 345 338 345 -0 314 284 263 238 219 199 189 189 193 192 191 199 202 197 197 201 204 212 215 221 221 215 217
13 13 14 19 13 8 19 19 19 338 346 326 333 338 350 341 348 344 338 337 3 334 297 261 226 193 185 182 189 185 189 195 196 194 197 199 201 211 218 222 223 221 219 220
12 12 14 18 8 13 16 9 349 348 345 331 342 351 340 345 348 344 344 342 1 8 32 104 169 179 180 184 181 180 182 186 188 193 197 203 208 219 214 211 222 223 229 224
16 14 13 14 12 15 9 0 354 347 357 339 341 344 347 352 356 349 346 347 352 18 57 122 176 181 177 170 180 179 180 181 184 189 196 201 203 212 222 218 219 230 227 226
17 12 8 7 8 13 9 6 8 330 335 342 337 342 349 354 354 350 352 354 7 11 20 73 119 137 153 159 156 158 173 182 187 193 202 208 211 220 239 224 226 228 227 227
12 17 11 4 15 12 11 11 8 320 328 328 333 337 350 355 354 347 0 11 2 5 32 99 128 149 158 170 165 163 169 177 182 186 197 211 217 224 215 222 229 229 225 229
7 4 9 20 14 11 11 12 12 315 311 318 326 331 348 349 351 350 345 349 4 355 359 45 74 152 169 164 159 157 163 173 179 195 201 211 216 228 229 224 225 220 218 207
9 13 12 6 10 10 13 12 13 10 314 321 326 326 339 340 353 347 345 344 345 353 356 355 322 39 54 127 171 158 156 159 185 197 209 213 213 181 223 225 228 226 217 222
9 13 8 3 8 16 12 14 13 15 309 318 319 320 326 331 343 347 343 340 342 340 351 309 295 349 350 273 203 181 159 183 189 203 213 212 212 205 215 235 246 229 200 221
7 8 8 16 12 9 13 14 14 15 307 318 325 321 324 334 331 342 346 341 341 341 339 335 341 331 331 328 260 209 182 115 129 203 214 210 220 218 210 219 232 239 243 222
1 5 3 5 5 10 13 13 14 15 18 316 323 326 329 332 332 331 334 336 336 340 341 345 340 335 319 287 240 250 268 280 325 281 230 213 206 219 210 200 214 166 137 152
6 7 6 5 6 8 11 12 12 13 13 317 317 323 322 323 333 328 329 334 342 340 338 335 317 313 318 310 274 247 268 276 267 241 229 225 218 212 184 157 195 203 195 162
1 1 5 4 5 6 8 11 11 10 11 3 314 315 319 321 325 334 332 328 323 320 325 328 331 321 318 310 301 295 326 321 300 240 234 233 222 223 197 137 130 155 181 143
358 1 2 2 1 1 4 7 8 8 9 12 310 314 316 320 321 324 329 324 322 316 324 320 320 316 317 318 318 314 293 314 278 238 229 224 234 213 202 194 183 189 187 193
359 358 359 359 359 359 1 3 6 6 7 5 319 309 312 312 313 316 322 327 330 321 318 315 318 312 306 311 306 292 277 271 264 258 242 213 202 224 192 195 192 208 198 208
357 358 358 358 357 358 358 1 3 3 5 1 346 309 307 310 310 312 316 321 325 317 317 311 312 306 300 297 305 293 281 273 266 266 251 240 235 230 225 220 221 222 228 231
356 356 355 356 355 356 357 358 359 358 359 358 350 320 302 304 305 306 308 312 314 315 314 314 316 315 311 307 300 290 285 283 276 255 250 257 258 259 248 246 246 245 243 243
355 355 354 354 353 353 355 356 356 355 354 354 349 326 306 301 302 300 301 302 301 308 308 308 308 311 308 302 296 296 290 280 276 284 282 292 276 274 270 263 256 258 255 250
355 354 353 352 351 351 352 353 353 352 351 352 347 324 310 299 297 296 294 298 299 302 301 301 307 303 300 290 284 284 285 286 288 287 286 285 281 286 290 286 273 265 262 261
353 353 352 351 351 349 347 350 351 350 351 350 338 322 310 298 295 295 294 293 297 300 301 307 307 305 299 296 292 291 290 290 295 296 298 302 303 302 295 293 285 278 284 295
352 351 351 350 347 345 346 349 348 349 350 347 330 322 312 305 294 293 295 295 296 300 299 306 312 309 303 297 297 297 301 304 308 309 307 311 311 314 311 315 307 292 290 291
349 349 349 350 347 348 348 349 347 349 350 345 331 322 310 305 297 294 295 296 296 299 300 303 306 311 306 301 302 305 308 308 309 316 341 350 4 13 9 0 350 333 326 322
350 351 351 350 352 351 350 349 349 350 351 345 329 317 306 301 296 294 294 296 296 295 295 297 302 302 303 301 301 310 322 323 328 336 346 360 10 23 17 24 31 40 52 66